CZ-6A DEB, 56236

Orbit data source: Space-Track

CZ-6A DEB, 56236 is space debris in SSO originally from a launch on Fri, 11 Nov 2022 UTC launched from the Taiyaun Space Center, China (TSC). Debris objects in space refer to the collection of defunct objects orbiting the Earth. Examples of debris include non-operational satellites, rocket bodies, and fragments generated from explosions, collisions, or faulty payload assembly.

Loading next visibility...
Identifier
56236, 2022-151ABC
Orbit
SSO
Country
Flag of CNCN / PRC
Related business
Manufacturer
SAST
Mission
Spacecraft
Bus & Motor
Unknown
Mass
Unknown
Launch date (UTC)
2022-11-11 (4 years ago)
Launch vehicle
Unknown
Launch site
Taiyaun Space Center, China (TSC)
Object type
Payload
Rocket body
Debris
Shape & HBR
Unknown shape, 0.1 m
Radar Cross Section
Medium (>0.1 m² and <1 m²)

Expand to show TLE details & history
Last TLE update: 2 days ago

TLE from 2 days ago
0 CZ-6A DEB
1 56236U 22151ABC 26171.01382480  .00003606  00000-0  10031-2 0  9998
2 56236  98.5940 198.1867 0067107  18.6273 341.7352 14.45712559177066
Epoch: 2026-06-20T00:19Z
TLE epoch observation values (Epoch: 2026-06-20T00:19:54.462Z)
Latitude
-0.00003°
Longitude
-75.02476°
Altitude
697.303 km
Speed
7.531 km/s
True Right ascension
13h 12m 44s
True Declination
0° 00' 00"
Sunlit
Object was in daylight at epoch
Visualization orbit readout
Latitude
Unknown
Longitude
Unknown
Altitude
Unknown
Speed
Unknown
Apparent Right ascension
Unknown
Apparent Declination
Unknown
Sunlit
N/A
Visualization observer readout
Local Sidereal Time
21:27:48
Azimuth
Unknown
Elevation
Unknown
Doppler factor
Unknown
Orbital elements
Apogee altitude
784.551 km
Perigee altitude
689.059 km
Semi-major axis
7,114.942 km
Eccentricity
0.00671
Inclination
98.594°
RAAN
198.1867°
Arg. of periapsis
18.6273°
True anomaly
341.49226°
Mean anomaly
341.7352°
Eccentric anomaly
341.61392°
Mean motion
3.61648 °/min
Orbital period
99.54 mins
BSTAR
0.0010031
Loading maneuver chart data...
Computing Atmospheric mass density...
Loading historical data...
Loading historical data...
Loading historical data...
Loading historical data...
Loading historical data...
Loading historical data...
Loading historical data...

Documentation

Showing up to 5 results
|